CH4SAO CYVR-CYVR

Flight info

Callsign CH4SAO
Flight time 0h 3m
Altitude
Route CYVR/26L
Aircraft C172

Departure

Time 2026-05-05 01:54
Airport Vancouver International Airport (CYVR)

Arrival

Time 2026-05-05 01:57
Airport Vancouver International Airport (CYVR)
Time Latitude Longitude Altitude Speed Heading
2026-05-05 01:43 49.18103 -123.15852 18 ft 0 kts 190°
2026-05-05 01:45 49.18111 -123.15884 18 ft 0 kts 351°
2026-05-05 01:46 49.18146 -123.15880 18 ft 10 kts 15°
2026-05-05 01:46 49.18181 -123.15976 18 ft 15 kts 278°
2026-05-05 01:47 49.18202 -123.16150 18 ft 18 kts 286°
2026-05-05 01:47 49.18217 -123.16350 18 ft 14 kts 288°
2026-05-05 01:47 49.18222 -123.16368 18 ft 0 kts 283°
2026-05-05 01:48 49.18224 -123.16427 18 ft 15 kts 277°
2026-05-05 01:48 49.18231 -123.16613 18 ft 18 kts 278°
2026-05-05 01:49 49.18248 -123.16814 18 ft 21 kts 276°
2026-05-05 01:49 49.18253 -123.16927 18 ft 0 kts 275°
2026-05-05 01:49 49.18254 -123.16933 18 ft 5 kts 271°
2026-05-05 01:49 49.18264 -123.17112 18 ft 22 kts 275°
2026-05-05 01:50 49.18344 -123.17271 18 ft 25 kts 323°
2026-05-05 01:50 49.18434 -123.17475 18 ft 25 kts 282°
2026-05-05 01:50 49.18464 -123.17733 18 ft 24 kts 278°
2026-05-05 01:50 49.18487 -123.17957 18 ft 23 kts 278°
2026-05-05 01:51 49.18508 -123.18111 18 ft 0 kts 277°
2026-05-05 01:51 49.18510 -123.18141 18 ft 7 kts 278°
2026-05-05 01:51 49.18546 -123.18178 18 ft 1 kts 31°
2026-05-05 01:51 49.18580 -123.18165 18 ft 15 kts 13°
2026-05-05 01:52 49.18677 -123.18128 19 ft 14 kts 40°
2026-05-05 01:52 49.18684 -123.17955 19 ft 25 kts 99°
2026-05-05 01:52 49.18676 -123.17885 19 ft 0 kts 100°
2026-05-05 01:52 49.18671 -123.17829 20 ft 10 kts 14°
2026-05-05 01:53 49.18682 -123.17859 19 ft 0 kts 269°
2026-05-05 01:53 49.18691 -123.17960 19 ft 32 kts 278°
2026-05-05 01:53 49.18757 -123.18516 51 ft 66 kts 283°
2026-05-05 01:53 49.18849 -123.19245 149 ft 80 kts 271°
2026-05-05 01:54 49.18910 -123.20035 398 ft 73 kts 270°
2026-05-05 01:54 49.18785 -123.20734 542 ft 72 kts 202°
2026-05-05 01:54 49.18285 -123.20581 767 ft 70 kts 174°
2026-05-05 01:54 49.17735 -123.20455 893 ft 84 kts 181°
2026-05-05 01:55 49.17184 -123.20222 1097 ft 90 kts 137°
2026-05-05 01:55 49.17108 -123.19248 1290 ft 97 kts 94°
2026-05-05 01:55 49.17098 -123.18134 1338 ft 114 kts 94°
2026-05-05 01:55 49.17054 -123.16878 1338 ft 123 kts 93°
2026-05-05 01:56 49.17034 -123.15625 1231 ft 108 kts 96°
2026-05-05 01:56 49.17029 -123.14536 1092 ft 99 kts 88°
2026-05-05 01:56 49.17504 -123.13937 893 ft 98 kts
2026-05-05 01:56 49.18148 -123.14288 554 ft 107 kts 302°
2026-05-05 01:57 49.18389 -123.15392 181 ft 105 kts 277°
2026-05-05 01:57 49.18508 -123.16395 28 ft 82 kts 274°
2026-05-05 01:57 49.18580 -123.17056 16 ft 46 kts 281°
2026-05-05 01:57 49.18614 -123.17378 19 ft 26 kts 282°
2026-05-05 01:58 49.18602 -123.17574 20 ft 17 kts 206°